Weather Roundup
Issued by NWS

Home | Current Version | Previous Version | Text Only | Print | Product List | Glossary On
Versions: 1 2 3 4 5 6 7 8 9 10 11 12 13 14 15 16 17 18 19 20 21 22 23 24 25 26 27 28 29 30 31 32 33 34 35 36 37 38 39 40 41 42 43 44 45 46 47 48 49 50
588
NZUS93 KARX 181410
HRRWXR

CURRENT HOURLY OBSERVATIONS ACROSS
MUCH OF THE UPPER MISSISSIPPI VALLEY
NATIONAL WEATHER SERVICE LA CROSSE WI
800 AM CST WED JAN 18 2017


...SOUTHEAST MINNESOTA...


CITY           SKY/WX    TMP DP  RH WIND       PRES   REMARKS
ROCHESTER      CLOUDY    25  25 100 S12       29.97F FOG     WCI  14
ROCHESTER/MAYO FAIR      27  28 100 S10       29.97F WCI  18
WINONA         CLEAR     30  28  93 CALM      30.02F
AUSTIN         FOG       27  27 100 S7        29.97F VSB 3/4 WCI  19
ALBERT LEA       N/A     28  28 100 S5        29.95F FOG     WCI  23
DODGE CENTER   CLOUDY    27  25  93 CALM      29.95F FOG
PRESTON        CLOUDY    26  25  96 S15       29.99F FOG     WCI  13
OWATONNA       CLOUDY    28  25  86 S10       29.94F FOG     WCI  19
FARIBAULT      CLOUDY    28  27  93 S6        29.94F FOG     WCI  22
$$

...ELSEWHERE IN MINNESOTA...


CITY           SKY/WX    TMP DP  RH WIND       PRES   REMARKS
MINNEAPOLIS    CLOUDY    31  26  82 S9        29.90F WCI  23
INTNL FALLS    CLOUDY    21  16  81 SW5       29.70R WCI  15
DULUTH         CLOUDY    27  25  92 SW15      29.77R FOG     WCI  15
RED WING       CLOUDY    28  23  80 S5        29.96F WCI  23
REDWOOD FALLS  CLOUDY    24  20  84 S6        29.87F WCI  17
MANKATO        CLOUDY    26  25  96 S9        29.92F FOG     WCI  17
WORTHINGTON    CLOUDY    27  25  92 SW15      29.89F WCI  15
FAIRMONT       CLOUDY    28  25  88 S12       29.94F WCI  18
$$

...SOUTHWEST WISCONSIN...


CITY           SKY/WX    TMP DP  RH WIND       PRES   REMARKS
LA CROSSE      CLOUDY    33  28  81 S13       30.04F WCI  24
PRAIRIE DU CHI CLOUDY    32  29  88 S5        30.09S WCI  27
BOSCOBEL       CLOUDY    33  30  88 SW5       30.09F WCI  29
LONE ROCK      CLOUDY    33  30  88 SW8       30.09S WCI  26
PLATTEVILLE    CLOUDY    31  31 100 SW9       30.11R WCI  23
FORT MC COY    CLOUDY    30  29  95 SW8       30.05S WCI  23
CAMP DOUGLAS   MOCLDY    32  28  86 SW6       30.03S WCI  26
MAUSTON-NEW LI CLOUDY    32  30  93 SW5       30.04S FOG     WCI  27
VIROQUA        CLOUDY    29  29 100 SW13      30.04S WCI  19
WIS DELLS      CLOUDY    31  31  99 SW10      30.04F WCI  23
$$

...ELSEWHERE IN WISCONSIN...


CITY           SKY/WX    TMP DP  RH WIND       PRES   REMARKS
MILWAUKEE      CLOUDY    36  32  85 W13       30.08R WCI  27
MADISON        CLOUDY    32  31  96 VRB7      30.08S FOG     WCI  26
GREEN BAY      CLOUDY    34  34 100 SW9G18    30.00F FOG     WCI  27
EAU CLAIRE     CLOUDY    26  25  96 S8        29.95F WCI  18
BLACK RVR FLS  CLOUDY    31  31 100 SW8       30.01F WCI  24
MEDFORD        CLOUDY    28  27  96 SW9       29.93S FOG     WCI  19
WAUSAU         CLOUDY    29  28  96 SW13      29.95F WCI  19
WIS RAPIDS     CLOUDY    31  31 100 SW9       30.01F WCI  23
MARSHFIELD     CLOUDY    29  27  92 SW13G22   29.96F FOG     WCI  19
RICE LAKE      CLOUDY    27  25  94 S6        29.92F WCI  20
$$

...NORTHEAST IOWA...


CITY           SKY/WX    TMP DP  RH WIND       PRES   REMARKS
WATERLOO       CLOUDY    29  27  92 S9        30.07S FOG     WCI  20
DUBUQUE        CLOUDY    29  29 100 SW9       30.10R WCI  20
DECORAH        CLOUDY    28  28 100 S7        30.02F FOG     WCI  21
MASON CITY     FOG       28  27  96 S15G23    30.01S VSB 1/4 WCI  16
CHARLES CITY   FOG       28  28 100 S12       30.03S VSB 1/2 WCI  18
OELWEIN        CLOUDY    28  28 100 S8        30.06F FOG     WCI  20
$$

...ELSEWHERE IN IOWA...


CITY           SKY/WX    TMP DP  RH WIND       PRES   REMARKS
DES MOINES     FOG       31  30  96 S7        30.08S VSB 1/8 WCI  24
IOWA CITY      CLOUDY    31  29  92 S6        30.15R FOG     WCI  25
FORT DODGE     CLOUDY    28  27  93 MISG      30.02F
MARSHALLTOWN   FOG       30  30 100 S12       30.07S VSB 1/2 WCI  20
CEDAR RAPIDS   CLOUDY    28  27  96 S6        30.10S FOG     WCI  22
$$

...NORTHERN ILLINOIS...


CITY           SKY/WX    TMP DP  RH WIND       PRES   REMARKS
CHICAGO-OHARE  CLOUDY    34  32  92 W10       30.13R WCI  26
CHICAGO-MIDWAY CLOUDY    33  31  92 W8        30.14R WCI  26
MOLINE         CLOUDY    33  29  85 SW3       30.13S
ROCKFORD       DRIZZLE   33  32  96 W9        30.15R FOG     WCI  25
PEORIA         CLOUDY    34  31  88 W8        30.17R WCI  27
$$

NOTE: "FAIR" INDICATES FEW OR NO CLOUDS BELOW 12,000 FEET WITH NO
SIGNIFICANT WEATHER AND/OR OBSTRUCTIONS TO VISIBILITY. WIND
SPEEDS ARE IN MILES-PER-HOUR.




USA.gov is the U.S. government's official web portal to all federal, state and local government web resources and services.